国际通讯卫星 37E星 (INTELSAT 37E (IS-37E))

导读

INTELSAT 37E是国际通信卫星组织(ITSO)旗下的通信卫星,于2017年9月29日发射升空。作为国际通信卫星体系的重要组成部分,该卫星延续了Intelsat系列的技术优势,主要承担跨区域通信传输任务,可为全球多个地区提供广播电视信号传输、宽带网络接入、应急通信保障等服务,预期拥有超过十五年的工作寿命,目前仍在轨稳定运行,支撑着全球卫星通信网络的正常运转。

Basic Information
目录编号:
42950
目录名称:
INTELSAT 37E
国际标识:
2017-059A
轨道中心:
EARTH
卫星名称:
国际通讯卫星 37E星
卫星全名:
国际通讯卫星 37E星 (INTELSAT 37E (IS-37E))
卫星状态:
在轨 (已飞行3224 天)
发射日期:
2017-09-29 UTC
国别 :
(ITSO)
星等 :
--
Orbit Information
数据来源 国际轨道数据 AOE轨道数据
星历时间 2026-07-27T10:45:39+0800
23小时前
查看轨道信息
2026-07-25T11:00:00+0800
2天前
查看轨道信息
半长轴 42164.756km 42164.784km
偏心率 0.0003097 0.000293
轨道倾角 0.017° 0.023°
近地点辐角 72.850° 66.306°
升交点赤经 59.340° 64.794°
平近点角 196.019° 198.742°
近地点 35773.56km 35774.292km
远地点 35799.678km 35799.002km
周期 1436.098分钟 1436.100分钟
每日圈数 1.002717 1.002716
Detailed Information
卫星平台:
SSL 1300
平衡模式:
三轴稳定
覆盖范围:
全球
运营商:
国际卫星通信公司
运营商所在国:
美国
制造商(研发单位):
波音公司
制造商所在国:
美国
使用方式:
暂无
Satellite Introduction
从1965年4月至1984年3月,国际通信卫星组织发射了5代、6种不同性能的卫星共计35颗,除6颗卫星因运载火箭和远地点发动机故障而发射失败外,其余29颗卫星均被送到了预定的静止轨道位置。1984年8月前后,国际通信卫星组织利用部署在大西洋、太平洋、印度洋上空的15颗国际通信卫星,为遍布世界各地170多个国家或地区提供电话、电传、电报、电视和数据传输等电信业务;该卫星仍在工作。
2D Orbit Map
3D Orbit Map
Orbit Altitude Analysis Chart
Orbit Inclination Analysis Chart
Orbit Comprehensive Analysis Chart
View Comprehensive Chart